Weather History for Fortuna, CA

Change the Weather History Date:

Saturday, August 10, 2013

  Actual Average (KEKA) Record (KEKA)
Temperature  
Mean Temperature 60 °F 59 °F  
Max Temperature 66 °F 64 °F 75 °F (1970)
Min Temperature 53 °F 53 °F 48 °F (1931)
Degree Days  
Heating Degree Days 6 6  
Month to date heating degree days 66  
Since 1 June heating degree days 558  
Since 1 July heating degree days 292  
Cooling Degree Days 0 0  
Month to date cooling degree days 0  
Year to date cooling degree days 0  
Since 1 June cooling degree days 0  
Growing Degree Days 10 (Base 50)    
Moisture  
Dew Point 55 °F    
Average Humidity 89    
Maximum Humidity 100    
Minimum Humidity 68    
Precipitation  
Precipitation 0.00 in 0.00 in 0.05 in (1892)
Month to date precipitation 0.05  
Year to date precipitation 23.51  
Since 1 July precipitation 0.23  
Snow  
Snow 0.00 in 0.00 in 0.00 in (2002)
Month to date snowfall 0.0  
Since 1 June snowfall 0.0  
Since 1 July snowfall 0.0  
Snow Depth -    
Sea Level Pressure  
Sea Level Pressure 30.04 in    
Wind  
Wind Speed 6 mph (WNW)    
Max Wind Speed 17 mph    
Max Gust Speed 22 mph    
Visibility 8 miles    
Events      
T = Trace of Precipitation, MM = Missing Value Source: NWS Daily Summary

Daily Weather History Graph

Daily Weather History Graph

Search for Another Location

Airport:

Trip Planner

Search our weather history database for the weather conditions in past years. The results will help you decide how hot, cold, wet, or windy it might be!

Date:

Astronomy

Aug. 10, 2013 Rise Set
Actual Time 6:22 AM PDT 8:20 PM PDT
Civil Twilight 5:52 AM PDT 8:49 PM PDT
Nautical Twilight 5:16 AM PDT 9:26 PM PDT
Astronomical Twilight 4:37 AM PDT 10:05 PM PDT
Moon 10:16 AM PDT (8/10) 10:03 PM PDT (8/10)
Length of Visible Light 14h 57m
Length of Day
13h 57m
Waxing Crescent, 15% of the Moon is Illuminated
Aug 10
Waxing Crescent
Aug 14
First Quarter
Aug 20
Full
Aug 28
Last Quarter
Sep 5
New

Hourly Weather History & Observations

Time (PDT) Temp. Dew Point Humidity Pressure Visibility Wind Dir Wind Speed Gust Speed Precip Events Conditions
12:15 AM 53.6 °F 53.6 °F 100% 30.01 in 10.0 mi SSE 3.5 mph - N/A   Overcast
12:35 AM 53.6 °F 53.6 °F 100% 30.01 in 10.0 mi SSE 3.5 mph - N/A   Overcast
12:55 AM 53.6 °F 53.6 °F 100% 30.01 in 10.0 mi Calm Calm - N/A   Overcast
1:15 AM 53.6 °F 53.6 °F 100% 30.01 in 10.0 mi SE 3.5 mph - N/A   Overcast
1:35 AM 53.6 °F 53.6 °F 100% 30.00 in 7.0 mi ESE 6.9 mph - N/A   Overcast
1:55 AM 53.6 °F 53.6 °F 100% 30.00 in 10.0 mi SE 6.9 mph - N/A   Overcast
2:15 AM 53.6 °F 53.6 °F 100% 30.00 in 10.0 mi SSE 4.6 mph - N/A   Overcast
2:35 AM 53.6 °F 53.6 °F 100% 30.00 in 10.0 mi SSE 5.8 mph - N/A   Overcast
2:55 AM 53.6 °F 53.6 °F 100% 30.00 in 10.0 mi SE 5.8 mph - N/A   Overcast
3:15 AM 53.6 °F 53.6 °F 100% 30.00 in 10.0 mi Calm Calm - N/A   Overcast
3:35 AM 53.6 °F 53.6 °F 100% 30.01 in 8.0 mi NW 5.8 mph - N/A   Overcast
3:55 AM 53.6 °F 53.6 °F 100% 30.01 in 8.0 mi North 5.8 mph - N/A   Overcast
4:15 AM 53.6 °F 53.6 °F 100% 30.01 in 10.0 mi NNE 5.8 mph - N/A   Overcast
4:35 AM 53.6 °F 53.6 °F 100% 30.01 in 10.0 mi Calm Calm - N/A   Overcast
4:55 AM 55.4 °F 53.6 °F 94% 30.01 in 10.0 mi SSW 3.5 mph - N/A   Overcast
5:15 AM 53.6 °F 53.6 °F 100% 30.02 in 10.0 mi SSE 3.5 mph - N/A   Overcast
5:35 AM 53.6 °F 53.6 °F 100% 30.02 in 10.0 mi Calm Calm - N/A   Overcast
5:55 AM 55.4 °F 53.6 °F 94% 30.02 in 10.0 mi Calm Calm - N/A   Overcast
6:15 AM 55.4 °F 53.6 °F 94% 30.03 in 10.0 mi Calm Calm - N/A   Overcast
6:35 AM 55.4 °F 53.6 °F 94% 30.03 in 10.0 mi Calm Calm - N/A   Overcast
6:55 AM 55.4 °F 53.6 °F 94% 30.04 in 10.0 mi SE 3.5 mph - N/A   Overcast
7:15 AM 55.4 °F 53.6 °F 94% 30.04 in 10.0 mi SE 4.6 mph - N/A   Overcast
7:35 AM 55.4 °F 53.6 °F 94% 30.04 in 10.0 mi SE 5.8 mph - N/A   Overcast
7:55 AM 55.4 °F 53.6 °F 94% 30.04 in 10.0 mi SE 8.1 mph - N/A   Mostly Cloudy
8:15 AM 57.2 °F 53.6 °F 88% 30.03 in 10.0 mi SE 6.9 mph - N/A   Partly Cloudy
8:35 AM 57.2 °F 55.4 °F 94% 30.03 in 10.0 mi SE 6.9 mph - N/A   Clear
8:55 AM 59.0 °F 55.4 °F 88% 30.03 in 10.0 mi SSE 6.9 mph - N/A   Clear
9:15 AM 60.8 °F 55.4 °F 82% 30.03 in 10.0 mi SSE 4.6 mph - N/A   Clear
9:35 AM 60.8 °F 55.4 °F 82% 30.03 in 10.0 mi Calm Calm - N/A   Clear
9:55 AM 62.6 °F 55.4 °F 77% 30.03 in 10.0 mi South 3.5 mph - N/A   Clear
10:15 AM 66.2 °F 55.4 °F 68% 30.03 in 10.0 mi Calm Calm - N/A   Clear
10:35 AM 66.2 °F 55.4 °F 68% 30.03 in 10.0 mi NW 6.9 mph - N/A   Clear
10:55 AM 66.2 °F 57.2 °F 73% 30.03 in 10.0 mi WNW 10.4 mph - N/A   Clear
11:15 AM 66.2 °F 57.2 °F 73% 30.04 in 10.0 mi WNW 10.4 mph - N/A   Clear
11:35 AM 66.2 °F 57.2 °F 73% 30.04 in 10.0 mi WNW 13.8 mph - N/A   Clear
11:55 AM 64.4 °F 57.2 °F 77% 30.05 in 10.0 mi NW 13.8 mph - N/A   Clear
12:15 PM 66.2 °F 57.2 °F 73% 30.05 in 10.0 mi WNW 17.3 mph - N/A   Clear
12:35 PM 64.4 °F 57.2 °F 77% 30.05 in 10.0 mi NW 15.0 mph - N/A   Clear
12:55 PM 62.6 °F 55.4 °F 77% 30.06 in 10.0 mi NW 15.0 mph - N/A   Partly Cloudy
1:15 PM 62.6 °F 55.4 °F 77% 30.06 in 10.0 mi NNW 15.0 mph - N/A   Scattered Clouds
1:35 PM 62.6 °F 55.4 °F 77% 30.06 in 10.0 mi NW 13.8 mph - N/A   Partly Cloudy
1:55 PM 64.4 °F 55.4 °F 73% 30.06 in 10.0 mi NW 15.0 mph 21.9 mph N/A   Partly Cloudy
2:15 PM 64.4 °F 55.4 °F 73% 30.06 in 10.0 mi NW 13.8 mph - N/A   Scattered Clouds
2:35 PM 64.4 °F 57.2 °F 77% 30.06 in 10.0 mi WNW 13.8 mph 18.4 mph N/A   Partly Cloudy
2:55 PM 66.2 °F 57.2 °F 73% 30.06 in 10.0 mi WNW 15.0 mph - N/A   Partly Cloudy
3:15 PM 64.4 °F 55.4 °F 73% 30.06 in 10.0 mi NW 16.1 mph - N/A   Clear
3:35 PM 64.4 °F 57.2 °F 77% 30.06 in 10.0 mi NW 13.8 mph - N/A   Partly Cloudy
3:55 PM 64.4 °F 57.2 °F 77% 30.05 in 10.0 mi WNW 15.0 mph - N/A   Clear
4:15 PM 64.4 °F 57.2 °F 77% 30.05 in 10.0 mi NW 15.0 mph - N/A   Clear
4:35 PM 64.4 °F 57.2 °F 77% 30.05 in 10.0 mi WNW 13.8 mph - N/A   Clear
4:55 PM 64.4 °F 57.2 °F 77% 30.05 in 10.0 mi WNW 13.8 mph - N/A   Clear
5:15 PM 62.6 °F 55.4 °F 77% 30.05 in 10.0 mi WNW 15.0 mph 20.7 mph N/A   Clear
5:35 PM 60.8 °F 55.4 °F 82% 30.05 in 10.0 mi WNW 15.0 mph - N/A   Clear
5:55 PM 59.0 °F 55.4 °F 88% 30.06 in 10.0 mi WNW 13.8 mph - N/A   Partly Cloudy
6:15 PM 59.0 °F 55.4 °F 88% 30.06 in 10.0 mi WNW 15.0 mph - N/A   Mostly Cloudy
6:35 PM 57.2 °F 55.4 °F 94% 30.06 in 10.0 mi WNW 15.0 mph - N/A   Mostly Cloudy
6:55 PM 57.2 °F 55.4 °F 94% 30.07 in 10.0 mi WNW 12.7 mph - N/A   Mostly Cloudy
7:15 PM 55.4 °F 55.4 °F 100% 30.07 in 10.0 mi WNW 11.5 mph - N/A   Overcast
7:35 PM 55.4 °F 53.6 °F 94% 30.07 in 5.0 mi WNW 9.2 mph - N/A   Overcast
7:55 PM 55.4 °F 53.6 °F 94% 30.07 in 2.0 mi NW 11.5 mph - N/A   Overcast
8:15 PM 53.6 °F 53.6 °F 100% 30.08 in 0.5 mi WNW 9.2 mph - N/A   Overcast
8:35 PM 53.6 °F 53.6 °F 100% 30.08 in 3.0 mi WNW 6.9 mph - N/A   Overcast
8:55 PM 53.6 °F 53.6 °F 100% 30.08 in 4.0 mi WNW 5.8 mph - N/A   Overcast
9:15 PM 53.6 °F 53.6 °F 100% 30.08 in 1.2 mi WNW 6.9 mph - N/A   Overcast
9:35 PM 53.6 °F 53.6 °F 100% 30.09 in 1.2 mi WNW 5.8 mph - N/A   Overcast
9:55 PM 55.4 °F 55.4 °F 100% 30.09 in 1.5 mi WNW 5.8 mph - N/A   Overcast
10:15 PM 53.6 °F 53.6 °F 100% 30.09 in 1.0 mi WNW 4.6 mph - N/A   Overcast
10:35 PM 55.4 °F 55.4 °F 100% 30.09 in 0.2 mi WNW 5.8 mph - N/A   Overcast
10:55 PM 55.4 °F 55.4 °F 100% 30.09 in 0.8 mi WNW 3.5 mph - N/A   Overcast
11:15 PM 53.6 °F 53.6 °F 100% 30.09 in 1.8 mi WNW 4.6 mph - N/A   Overcast
11:35 PM 53.6 °F 53.6 °F 100% 30.09 in 1.2 mi WNW 3.5 mph - N/A   Overcast
11:55 PM 53.6 °F 53.6 °F 100% 30.09 in 0.5 mi West 4.6 mph - N/A   Overcast